This is the latest recevied weather packets stored in our database for station/object KC0SIQ-13. If no packets are shown the sender has not sent any weather packets the latest 10 day(s).
| Time | Temp. | Humidity | Pressure | Rain* | Wind** | Luminosity | Snow |
|---|---|---|---|---|---|---|---|
| 1778013026 | 0.56° C | 99% | 1011.9 hPa | 1.27 mm | - | 64 W/m² | - |
| 1778012722 | 1.11° C | 99% | 1012 hPa | 1.78 mm | - | 68 W/m² | - |
| 1778012418 | 1.11° C | 99% | 1012.1 hPa | 1.78 mm | - | 68 W/m² | - |
| 1778012116 | 0.56° C | 99% | 1012.4 hPa | 1.27 mm | - | 63 W/m² | - |
| 1778011813 | 1.11° C | 99% | 1012.3 hPa | 3.05 mm | - | 72 W/m² | - |
| 1778011511 | 1.11° C | 99% | 1012.4 hPa | 3.05 mm | - | 80 W/m² | - |
| 1778011208 | 1.11° C | 99% | 1012.3 hPa | 1.27 mm | - | 96 W/m² | - |
| 1778010904 | 1.11° C | 99% | 1012.5 hPa | 0 mm | - | 105 W/m² | - |
| 1778010601 | 0.56° C | 99% | 1012.5 hPa | 1.78 mm | - | 91 W/m² | - |
| 1778010299 | 0.56° C | 99% | 1012.7 hPa | 1.78 mm | - | 103 W/m² | - |
| 1778009998 | 0.56° C | 99% | 1012.7 hPa | 0 mm | - | 99 W/m² | - |
| 1778009696 | 0.56° C | 99% | 1012.5 hPa | 0 mm | - | 103 W/m² | - |
| 1778009393 | 0.56° C | 99% | 1012.7 hPa | 0 mm | - | 95 W/m² | - |
| 1778009092 | 0.56° C | 99% | 1012.6 hPa | 0 mm | - | 81 W/m² | - |
| 1778008789 | 1.11° C | 99% | 1012.4 hPa | 0 mm | - | 94 W/m² | - |
| 1778008488 | 0.56° C | 99% | 1012.5 hPa | 1.27 mm | - | 91 W/m² | - |
| 1778008184 | 0.56° C | 99% | 1012.5 hPa | 1.27 mm | - | 89 W/m² | - |
| 1778007879 | 1.11° C | 99% | 1012.5 hPa | 0 mm | - | 104 W/m² | - |
| 1778007575 | 1.11° C | 99% | 1012.8 hPa | 1.78 mm | - | 106 W/m² | - |
| 1778007273 | 1.67° C | 99% | 1012.8 hPa | 1.78 mm | - | 89 W/m² | - |
| 1778006968 | 1.67° C | 99% | 1013 hPa | 1.78 mm | - | 119 W/m² | - |
| 1778006666 | 2.78° C | 99% | 1013 hPa | 1.78 mm | - | 76 W/m² | - |
| 1778006362 | 2.78° C | 99% | 1012.4 hPa | 1.27 mm | - | 103 W/m² | - |
| 1778006059 | 2.78° C | 99% | 1012.1 hPa | 1.27 mm | - | 129 W/m² | - |
| 1778005756 | 2.78° C | 99% | 1012.3 hPa | 1.78 mm | - | 132 W/m² | - |
* Rain latest hour (hover to see other rain measurements)
** Current wind speed in m/s (hover to see current wind gust speed)